Weather History for Sitka, AK

Change the Weather History Date:

Sunday, March 2, 2014

  Actual Average Record
Temperature  
Mean Temperature 31 °F -  
Max Temperature 35 °F 39 °F 48 °F (1965)
Min Temperature 26 °F 30 °F 9 °F (1955)
Degree Days  
Heating Degree Days 34    
Moisture  
Dew Point 1 °F    
Average Humidity 29    
Maximum Humidity 36    
Minimum Humidity 23    
Precipitation  
Precipitation 0.00 in - - ()
Sea Level Pressure  
Sea Level Pressure 29.79 in    
Wind  
Wind Speed 8 mph (East)    
Max Wind Speed 15 mph    
Max Gust Speed -    
Visibility 10 miles    
Events      
Averages and records for this station are not official NWS values.
T = Trace of Precipitation, MM = Missing Value Source: NWS Daily Summary

Daily Weather History Graph

Daily Weather History Graph

Search for Another Location

Airport:

Trip Planner

Search our weather history database for the weather conditions in past years. The results will help you decide how hot, cold, wet, or windy it might be!

Date:

Astronomy

Mar. 02, 2014 Rise Set
Actual Time 6:51 AM AKST 5:36 PM AKST
Civil Twilight 6:13 AM AKST 6:15 PM AKST
Nautical Twilight 5:28 AM AKST 6:59 PM AKST
Astronomical Twilight 4:44 AM AKST 7:44 PM AKST
Moon 7:02 AM AKST (3/2) 8:13 PM AKST (3/2)
Length of Visible Light 12h 02m
Length of Day
10h 45m
Waxing Crescent, 3% of the Moon is Illuminated
Mar 2
Waxing Crescent
Mar 8
First Quarter
Mar 16
Full
Mar 23
Last Quarter
Mar 30
New

Hourly Weather History & Observations

Time (AKST) Temp. Windchill Dew Point Humidity Pressure Visibility Wind Dir Wind Speed Gust Speed Precip Events Conditions
12:53 AM 30.0 °F 23.2 °F 3.9 °F 33% 29.84 in 10.0 mi East 6.9 mph - N/A   Clear
1:53 AM 28.9 °F 25.2 °F 5.0 °F 36% 29.84 in 10.0 mi ENE 3.5 mph - N/A   Clear
2:53 AM 30.0 °F 22.4 °F 3.0 °F 32% 29.83 in 10.0 mi East 8.1 mph - N/A   Clear
3:53 AM 30.0 °F 22.4 °F 1.0 °F 29% 29.82 in 10.0 mi East 8.1 mph - N/A   Clear
4:53 AM 30.0 °F 21.7 °F 1.9 °F 30% 29.82 in 10.0 mi East 9.2 mph - N/A   Clear
5:53 AM 28.0 °F 20.8 °F 1.9 °F 33% 29.82 in 10.0 mi East 6.9 mph - N/A   Clear
6:53 AM 28.9 °F 20.4 °F -0.9 °F 28% 29.82 in 10.0 mi East 9.2 mph - N/A   Clear
7:53 AM 30.0 °F 20.5 °F -0.0 °F 28% 29.82 in 10.0 mi ESE 11.5 mph - N/A   Clear
8:53 AM 30.9 °F 22.2 °F 1.9 °F 29% 29.83 in 10.0 mi ESE 10.4 mph - N/A   Clear
9:53 AM 32.0 °F 27.5 °F -2.0 °F 23% 29.83 in 10.0 mi SSE 4.6 mph - N/A   Clear
10:53 AM 33.1 °F 27.7 °F 1.0 °F 26% 29.83 in 10.0 mi NNW 5.8 mph - N/A   Clear
11:53 AM 34.0 °F 27.2 °F 3.9 °F 28% 29.82 in 10.0 mi WNW 8.1 mph - N/A   Clear
12:53 PM 35.1 °F 29.3 °F 1.0 °F 24% 29.81 in 10.0 mi WNW 6.9 mph - N/A   Clear
1:53 PM 35.1 °F 27.9 °F 3.0 °F 26% 29.79 in 10.0 mi East 9.2 mph - N/A   Clear
2:53 PM 35.1 °F 27.4 °F 1.9 °F 25% 29.77 in 10.0 mi East 10.4 mph - N/A   Clear
3:53 PM 35.1 °F 25.5 °F 1.9 °F 25% 29.75 in 10.0 mi East 15.0 mph - N/A   Clear
4:53 PM 34.0 °F 26.0 °F 1.9 °F 26% 29.74 in 10.0 mi East 10.4 mph - N/A   Clear
5:53 PM 32.0 °F 23.0 °F 1.0 °F 27% 29.75 in 10.0 mi East 11.5 mph - N/A   Clear
6:53 PM 30.9 °F 26.2 °F -0.0 °F 27% 29.75 in 10.0 mi East 4.6 mph - N/A   Clear
7:53 PM 28.9 °F 23.9 °F -0.9 °F 28% 29.74 in 10.0 mi ENE 4.6 mph - N/A   Clear
8:53 PM 28.9 °F 21.1 °F -0.0 °F 29% 29.75 in 10.0 mi NE 8.1 mph - N/A   Clear
9:53 PM 28.0 °F 21.7 °F 1.9 °F 33% 29.76 in 10.0 mi East 5.8 mph - N/A   Clear
10:53 PM 27.0 °F 21.6 °F 1.0 °F 33% 29.77 in 10.0 mi ENE 4.6 mph - N/A   Clear
11:53 PM 26.1 °F 19.4 °F -0.0 °F 32% 29.78 in 10.0 mi ENE 5.8 mph - N/A   Clear